Weather History for Ohio State University, OH

Change the Weather History Date:

Monday, January 16, 2012

  Actual Average Record
Temperature  
Mean Temperature 34 °F -  
Max Temperature 46 °F 31 °F 50 °F (2006)
Min Temperature 23 °F 17 °F -14 °F (2009)
Degree Days  
Heating Degree Days 30    
Moisture  
Dew Point 30 °F    
Average Humidity 78    
Maximum Humidity 89    
Minimum Humidity 64    
Precipitation  
Precipitation 0.00 in - - ()
Sea Level Pressure  
Sea Level Pressure 30.09 in    
Wind  
Wind Speed 11 mph (South)    
Max Wind Speed 18 mph    
Max Gust Speed 31 mph    
Visibility 9 miles    
Events Rain    
Averages and records for this station are not official NWS values.
T = Trace of Precipitation, MM = Missing Value Source: NWS Daily Summary

Daily Weather History Graph

Daily Weather History Graph

Search for Another Location

Airport:

Trip Planner

Search our weather history database for the weather conditions in past years. The results will help you decide how hot, cold, wet, or windy it might be!

Date:

Astronomy

Jan. 16, 2012 Rise Set
Actual Time 7:52 AM EST 5:31 PM EST
Civil Twilight 7:22 AM EST 6:01 PM EST
Nautical Twilight 6:49 AM EST 6:35 PM EST
Astronomical Twilight 6:16 AM EST 7:07 PM EST
Moon 12:59 AM EST (1/16) 11:45 AM EST (1/16)
Length of Visible Light 10h 39m
Length of Day
9h 39m
Waning Gibbous, 46% of the Moon is Illuminated
Jan 16
Waning Gibbous
Jan 23
New
Jan 30
First Quarter
Feb 7
Full
Feb 14
Last Quarter

Hourly Weather History & Observations

Time (EST) Temp. Windchill Dew Point Humidity Pressure Visibility Wind Dir Wind Speed Gust Speed Precip Events Conditions
12:53 AM 23.0 °F 12.4 °F 16.0 °F 74% 30.34 in 10.0 mi SE 10.4 mph - N/A   Clear
1:53 AM 23.0 °F 11.7 °F 16.0 °F 74% 30.30 in 10.0 mi SE 11.5 mph - N/A   Clear
2:53 AM 23.0 °F 13.1 °F 17.1 °F 78% 30.30 in 10.0 mi SE 9.2 mph - N/A   Clear
3:53 AM 23.0 °F 12.4 °F 17.1 °F 78% 30.27 in 10.0 mi SE 10.4 mph - N/A   Clear
4:53 AM 23.0 °F 14.7 °F 17.1 °F 78% 30.27 in 10.0 mi SSE 6.9 mph - N/A   Clear
5:53 AM 25.0 °F 15.5 °F 19.0 °F 78% 30.24 in 10.0 mi SSE 9.2 mph - N/A   Clear
6:53 AM 25.0 °F 13.6 °F 19.0 °F 78% 30.22 in 10.0 mi South 12.7 mph - N/A   Clear
7:53 AM 26.1 °F 16.8 °F 19.9 °F 78% 30.20 in 10.0 mi SSE 9.2 mph - N/A   Clear
8:53 AM 28.0 °F 20.0 °F 21.0 °F 75% 30.17 in 10.0 mi SSE 8.1 mph - N/A   Clear
9:53 AM 33.1 °F 23.9 °F 23.0 °F 66% 30.15 in 10.0 mi South 12.7 mph 19.6 mph N/A   Mostly Cloudy
10:53 AM 36.0 °F 28.5 °F 25.0 °F 64% 30.14 in 10.0 mi South 10.4 mph - N/A   Overcast
11:53 AM 37.0 °F 30.4 °F 26.1 °F 65% 30.11 in 10.0 mi South 9.2 mph - N/A   Overcast
12:33 PM 37.4 °F 31.4 °F 28.4 °F 70% 30.05 in 10.0 mi South 8.1 mph - 0.00 in   Overcast
12:53 PM 37.9 °F 32.1 °F 28.9 °F 70% 30.07 in 10.0 mi South 8.1 mph - 0.00 in   Overcast
1:53 PM 43.0 °F 34.8 °F 36.0 °F 76% 30.03 in 10.0 mi SSW 18.4 mph 31.1 mph N/A   Overcast
2:53 PM 42.1 °F 33.9 °F 37.9 °F 85% 30.01 in 5.0 mi SSW 17.3 mph 27.6 mph N/A   Overcast
3:03 PM 42.8 °F 35.4 °F 39.2 °F 87% 29.99 in 3.0 mi SSW 15.0 mph - N/A   Overcast
3:10 PM 42.8 °F 35.8 °F 39.2 °F 87% 29.99 in 2.5 mi SSW 13.8 mph 24.2 mph 0.00 in Rain Light Rain
3:34 PM 42.8 °F 35.1 °F 39.2 °F 87% 29.98 in 7.0 mi SSW 16.1 mph 25.3 mph 0.00 in Rain Light Rain
3:50 PM 42.8 °F 35.4 °F 39.2 °F 87% 29.99 in 10.0 mi South 15.0 mph 25.3 mph 0.00 in   Overcast
3:53 PM 42.1 °F 35.7 °F 39.0 °F 89% 30.01 in 10.0 mi South 11.5 mph 25.3 mph 0.00 in   Overcast
4:53 PM 42.1 °F 35.7 °F 39.0 °F 89% 30.00 in 8.0 mi South 11.5 mph - N/A   Overcast
5:53 PM 43.0 °F 37.7 °F 37.0 °F 80% 29.99 in 10.0 mi South 9.2 mph - N/A   Overcast
6:53 PM 45.0 °F 38.5 °F 37.9 °F 76% 29.98 in 10.0 mi South 13.8 mph 21.9 mph N/A   Overcast
7:53 PM 46.9 °F - 39.0 °F 74% 29.96 in 10.0 mi SSW 17.3 mph 25.3 mph N/A   Overcast
8:53 PM 46.0 °F 40.2 °F 39.9 °F 79% 29.96 in 10.0 mi SSW 12.7 mph 24.2 mph 0.00 in Rain Light Rain
9:53 PM 46.9 °F - 39.9 °F 77% 29.95 in 10.0 mi SSW 13.8 mph 23.0 mph 0.00 in   Overcast
10:53 PM 46.9 °F - 39.9 °F 77% 29.94 in 10.0 mi South 15.0 mph - 0.00 in   Overcast
11:53 PM 46.0 °F 41.4 °F 41.0 °F 83% 29.92 in 10.0 mi South 9.2 mph - 0.00 in Rain Light Rain